TimeEDT,TemperatureF,Dew PointF,Humidity,Sea Level PressureIn,VisibilityMPH,Wind Direction,Wind SpeedMPH,Gust SpeedMPH,PrecipitationIn,Events,Conditions,WindDirDegrees,DateUTC
12:52 AM,66.9,66.0,97,30.14,7.0,Calm,Calm,-,N/A,,Overcast,0,2013-08-20 04:52:00
1:52 AM,68.0,68.0,100,30.13,10.0,Calm,Calm,-,N/A,,Mostly Cloudy,0,2013-08-20 05:52:00
2:30 AM,69.8,68.0,94,30.14,10.0,East,3.5,-,N/A,,Mostly Cloudy,90,2013-08-20 06:30:00
2:52 AM,70.0,68.0,93,30.12,10.0,Calm,Calm,-,N/A,,Overcast,0,2013-08-20 06:52:00
3:40 AM,69.8,66.2,88,30.14,10.0,Calm,Calm,-,N/A,,Mostly Cloudy,0,2013-08-20 07:40:00
3:52 AM,68.0,66.9,96,30.12,10.0,Calm,Calm,-,N/A,,Mostly Cloudy,0,2013-08-20 07:52:00
4:36 AM,66.2,66.2,100,30.14,10.0,Calm,Calm,-,N/A,,Overcast,0,2013-08-20 08:36:00
4:52 AM,68.0,66.9,96,30.12,10.0,Calm,Calm,-,N/A,,Overcast,0,2013-08-20 08:52:00
5:52 AM,66.0,66.0,100,30.12,6.0,Calm,Calm,-,N/A,,Partly Cloudy,0,2013-08-20 09:52:00
6:52 AM,66.9,66.0,97,30.14,10.0,Calm,Calm,-,N/A,,Overcast,0,2013-08-20 10:52:00
7:52 AM,69.1,68.0,96,30.15,9.0,NNW,3.5,-,N/A,,Overcast,340,2013-08-20 11:52:00
8:52 AM,72.0,69.1,91,30.15,10.0,NNE,3.5,-,N/A,,Overcast,20,2013-08-20 12:52:00
9:52 AM,75.0,68.0,79,30.17,10.0,Calm,Calm,-,N/A,,Scattered Clouds,0,2013-08-20 13:52:00
10:05 AM,75.2,68.0,78,30.20,10.0,Variable,3.5,-,N/A,,Mostly Cloudy,0,2013-08-20 14:05:00
10:52 AM,75.9,68.0,76,30.19,10.0,Calm,Calm,-,N/A,,Mostly Cloudy,0,2013-08-20 14:52:00
11:52 AM,77.0,66.9,71,30.20,10.0,Calm,Calm,-,N/A,,Mostly Cloudy,0,2013-08-20 15:52:00
12:07 PM,77.0,66.2,69,30.22,10.0,Calm,Calm,-,N/A,,Mostly Cloudy,0,2013-08-20 16:07:00
12:52 PM,78.1,68.0,71,30.20,10.0,East,4.6,-,N/A,,Mostly Cloudy,80,2013-08-20 16:52:00
1:52 PM,78.1,68.0,71,30.19,10.0,East,4.6,-,N/A,,Mostly Cloudy,90,2013-08-20 17:52:00
2:52 PM,78.1,69.1,74,30.17,10.0,SE,5.8,-,N/A,,Mostly Cloudy,130,2013-08-20 18:52:00
3:52 PM,79.0,68.0,69,30.14,10.0,Calm,Calm,-,N/A,,Mostly Cloudy,0,2013-08-20 19:52:00
4:52 PM,80.1,69.1,69,30.13,10.0,Calm,Calm,-,N/A,,Mostly Cloudy,0,2013-08-20 20:52:00
5:52 PM,80.1,69.1,69,30.14,10.0,Calm,Calm,-,N/A,,Mostly Cloudy,0,2013-08-20 21:52:00
6:52 PM,78.1,70.0,76,30.15,10.0,Calm,Calm,-,N/A,,Overcast,0,2013-08-20 22:52:00
7:52 PM,75.9,71.1,85,30.15,10.0,Calm,Calm,-,N/A,,Mostly Cloudy,0,2013-08-20 23:52:00
8:52 PM,75.0,71.1,87,30.15,10.0,Calm,Calm,-,0.00,,Mostly Cloudy,0,2013-08-21 00:52:00
9:52 PM,73.9,72.0,93,30.17,10.0,Calm,Calm,-,0.00,Rain,Light Rain,0,2013-08-21 01:52:00
10:52 PM,75.0,72.0,90,30.18,10.0,Calm,Calm,-,0.00,,Overcast,0,2013-08-21 02:52:00
11:52 PM,73.0,72.0,96,30.19,10.0,Calm,Calm,-,N/A,,Overcast,0,2013-08-21 03:52:00